Location: Mercogliano
(40.9167°N, 14.7333°E)
Time: 06:14:06
(UTC+00:00)

SJ 16-02 - Pass Details

Date: 18 September 2020
Orbit: 606 x 616 km, 75.0° (Epoch: 26 October)

Event Time Altitude Azimuth Distance (km) Brightness Sun altitude
Rises 17:56:43 0° 224° (SW) 2,853 5.2 -10.6°
Reaches altitude 10° 17:59:11 10° 236° (SW) 1,953 4.6 -11.1°
Maximum altitude 18:02:57 28° 296° (WNW) 1,146 3.6 -11.8°
Drops below altitude 10° 18:06:45 10° 356° (N) 1,963 4.2 -12.5°
Sets 18:09:15 0° 8° (N) 2,871 4.9 -12.9°
